Change the Weather History Date:

Friday, January 24, 2014

  Actual Average (KCGZ) Record (KCGZ)
Temperature  
Mean Temperature 60 °F -  
Max Temperature 66 °F 64 °F 77 °F (1999)
Min Temperature 53 °F 39 °F 32 °F (2011)
Degree Days  
Heating Degree Days 6    
Growing Degree Days 10 (Base 50)    
Moisture  
Dew Point 18 °F    
Average Humidity 20    
Maximum Humidity 24    
Minimum Humidity 15    
Precipitation  
Precipitation 0.00 in - - ()
Sea Level Pressure  
Sea Level Pressure 30.25 in    
Wind  
Wind Speed 17 mph (East)    
Max Wind Speed 32 mph    
Max Gust Speed 39 mph    
Visibility 10 miles    
Events      
Averages and records for this station are not official NWS values.
T = Trace of Precipitation, MM = Missing Value Source: NWS Daily Summary

Daily Weather History Graph

Daily Weather History Graph

Search for Another Location

Airport or City:

Trip Planner

Search our weather history database for the weather conditions in past years. The results will help you decide how hot, cold, wet, or windy it might be!

Date:

Astronomy

Jan. 24, 2014 Rise Set
Actual Time 7:25 AM MST 5:50 PM MST
Civil Twilight 6:59 AM MST 6:16 PM MST
Nautical Twilight 6:29 AM MST 6:46 PM MST
Astronomical Twilight 5:59 AM MST 7:16 PM MST
Moon 1:00 AM MST (1/24) 12:08 PM MST (1/24)
Length of Visible Light 11h 17m
Length of Day
10h 25m
Last Quarter, 44% of the Moon is Illuminated
Jan 24
Last Quarter
Jan 30
New
Feb 6
First Quarter
Feb 14
Full
Feb 22
Last Quarter

Hourly Weather History & Observations

Time (MST) Temp. Dew Point Humidity Pressure Visibility Wind Dir Wind Speed Gust Speed Precip Events Conditions
12:10 AM 59.0 °F 19.4 °F 22% 30.17 in 10.0 mi ESE 6.9 mph - N/A   Clear
12:25 AM 59.0 °F 19.4 °F 22% 30.18 in 10.0 mi East 10.4 mph - N/A   Clear
12:55 AM 60.8 °F 19.4 °F 20% 30.19 in 10.0 mi East 12.7 mph - N/A   Clear
1:15 AM 60.8 °F 19.4 °F 20% 30.19 in 10.0 mi East 10.4 mph - N/A   Clear
1:35 AM 60.8 °F 19.4 °F 20% 30.20 in 10.0 mi East 11.5 mph - N/A   Clear
1:55 AM 59.0 °F 17.6 °F 20% 30.20 in 10.0 mi East 16.1 mph - N/A   Clear
2:15 AM 59.0 °F 17.6 °F 20% 30.20 in 10.0 mi East 17.3 mph 26.5 mph N/A   Clear
2:35 AM 59.0 °F 17.6 °F 20% 30.21 in 9.0 mi East 20.7 mph 32.2 mph N/A   Clear
2:55 AM 59.0 °F 17.6 °F 20% 30.21 in 10.0 mi East 24.2 mph 31.1 mph N/A   Clear
3:15 AM 57.2 °F 17.6 °F 21% 30.21 in 9.0 mi East 25.3 mph 34.5 mph N/A   Clear
3:35 AM 57.2 °F 17.6 °F 21% 30.21 in 10.0 mi East 25.3 mph 35.7 mph N/A   Clear
3:55 AM 57.2 °F 17.6 °F 21% 30.21 in 10.0 mi East 27.6 mph 35.7 mph N/A   Clear
4:15 AM 55.4 °F 17.6 °F 23% 30.21 in 7.0 mi East 32.2 mph 39.1 mph N/A   Partly Cloudy
4:35 AM 55.4 °F 17.6 °F 23% 30.22 in 10.0 mi East 25.3 mph 34.5 mph N/A   Partly Cloudy
4:55 AM 55.4 °F 17.6 °F 23% 30.22 in 10.0 mi East 27.6 mph 35.7 mph N/A   Clear
5:15 AM 55.4 °F 17.6 °F 23% 30.22 in 10.0 mi ENE 26.5 mph 38.0 mph N/A   Clear
5:35 AM 55.4 °F 17.6 °F 23% 30.23 in 10.0 mi East 26.5 mph 33.4 mph N/A   Clear
5:55 AM 55.4 °F 17.6 °F 23% 30.23 in 10.0 mi East 29.9 mph 36.8 mph N/A   Clear
6:15 AM 55.4 °F 17.6 °F 23% 30.23 in 10.0 mi East 26.5 mph 35.7 mph N/A   Clear
6:35 AM 53.6 °F 17.6 °F 24% 30.24 in 10.0 mi East 23.0 mph 36.8 mph N/A   Clear
6:55 AM 53.6 °F 17.6 °F 24% 30.25 in 10.0 mi East 26.5 mph 35.7 mph N/A   Clear
7:15 AM 53.6 °F 17.6 °F 24% 30.26 in 10.0 mi East 23.0 mph 34.5 mph N/A   Clear
7:35 AM 53.6 °F 17.6 °F 24% 30.28 in 10.0 mi East 20.7 mph 32.2 mph N/A   Clear
7:55 AM 53.6 °F 17.6 °F 24% 30.30 in 10.0 mi East 15.0 mph 24.2 mph N/A   Clear
8:15 AM 53.6 °F 17.6 °F 24% 30.30 in 10.0 mi East 17.3 mph 25.3 mph N/A   Clear
8:35 AM 53.6 °F 17.6 °F 24% 30.30 in 10.0 mi East 23.0 mph 35.7 mph N/A   Clear
8:55 AM 53.6 °F 17.6 °F 24% 30.30 in 10.0 mi East 24.2 mph 33.4 mph N/A   Clear
9:15 AM 53.6 °F 17.6 °F 24% 30.31 in 10.0 mi East 21.9 mph 29.9 mph N/A   Clear
9:35 AM 55.4 °F 17.6 °F 23% 30.31 in 10.0 mi East 23.0 mph 31.1 mph N/A   Clear
9:55 AM 55.4 °F 17.6 °F 23% 30.32 in 10.0 mi East 26.5 mph 32.2 mph N/A   Clear
10:15 AM 57.2 °F 17.6 °F 21% 30.32 in 10.0 mi East 20.7 mph 31.1 mph N/A   Clear
10:35 AM 57.2 °F 17.6 °F 21% 30.32 in 10.0 mi East 23.0 mph - N/A   Clear
10:55 AM 59.0 °F 17.6 °F 20% 30.34 in 10.0 mi East 23.0 mph - N/A   Clear
11:15 AM 59.0 °F 17.6 °F 20% 30.34 in 10.0 mi ENE 17.3 mph 26.5 mph N/A   Clear
11:35 AM 60.8 °F 17.6 °F 19% 30.33 in 10.0 mi East 18.4 mph - N/A   Clear
11:55 AM 60.8 °F 19.4 °F 20% 30.32 in 10.0 mi ENE 19.6 mph - N/A   Clear
12:15 PM 62.6 °F 19.4 °F 19% 30.31 in 10.0 mi ENE 18.4 mph - N/A   Clear
12:35 PM 62.6 °F 19.4 °F 19% 30.30 in 10.0 mi East 20.7 mph 26.5 mph N/A   Clear
12:55 PM 64.4 °F 19.4 °F 18% 30.28 in 10.0 mi ENE 20.7 mph - N/A   Clear
1:15 PM 64.4 °F 19.4 °F 18% 30.27 in 10.0 mi ENE 17.3 mph 24.2 mph N/A   Clear
1:35 PM 66.2 °F 19.4 °F 17% 30.25 in 10.0 mi ENE 18.4 mph - N/A   Clear
1:55 PM 66.2 °F 19.4 °F 17% 30.25 in 10.0 mi ENE 16.1 mph 25.3 mph N/A   Clear
2:15 PM 66.2 °F 17.6 °F 15% 30.24 in 10.0 mi East 20.7 mph - N/A   Clear
2:35 PM 66.2 °F 19.4 °F 17% 30.23 in 10.0 mi ENE 18.4 mph 25.3 mph N/A   Clear
2:55 PM 66.2 °F 19.4 °F 17% 30.23 in 10.0 mi ENE 17.3 mph - N/A   Clear
3:15 PM 66.2 °F 19.4 °F 17% 30.23 in 10.0 mi East 17.3 mph - N/A   Clear
3:35 PM 66.2 °F 19.4 °F 17% 30.23 in 10.0 mi East 16.1 mph - N/A   Clear
3:55 PM 66.2 °F 19.4 °F 17% 30.22 in 10.0 mi ENE 15.0 mph - N/A   Clear
4:15 PM 66.2 °F 19.4 °F 17% 30.22 in 10.0 mi ENE 16.1 mph - N/A   Clear
4:35 PM 66.2 °F 19.4 °F 17% 30.22 in 10.0 mi ENE 12.7 mph 21.9 mph N/A   Clear
4:55 PM 66.2 °F 19.4 °F 17% 30.23 in 10.0 mi ENE 12.7 mph - N/A   Clear
5:15 PM 64.4 °F 19.4 °F 18% 30.23 in 10.0 mi ENE 12.7 mph - N/A   Clear
5:35 PM 64.4 °F 19.4 °F 18% 30.23 in 10.0 mi ENE 12.7 mph - N/A   Clear
5:55 PM 64.4 °F 19.4 °F 18% 30.23 in 10.0 mi ENE 12.7 mph - N/A   Clear
6:15 PM 64.4 °F 19.4 °F 18% 30.23 in 10.0 mi East 10.4 mph - N/A   Clear
6:35 PM 62.6 °F 17.6 °F 18% 30.24 in 10.0 mi ENE 15.0 mph - N/A   Clear
6:55 PM 62.6 °F 17.6 °F 18% 30.24 in 10.0 mi East 11.5 mph - N/A   Partly Cloudy
7:15 PM 62.6 °F 19.4 °F 19% 30.24 in 10.0 mi East 11.5 mph - N/A   Mostly Cloudy
7:35 PM 62.6 °F 19.4 °F 19% 30.24 in 10.0 mi East 11.5 mph - N/A   Scattered Clouds
7:55 PM 62.6 °F 19.4 °F 19% 30.24 in 10.0 mi East 10.4 mph - N/A   Mostly Cloudy
8:15 PM 62.6 °F 17.6 °F 18% 30.24 in 10.0 mi East 11.5 mph - N/A   Overcast
8:35 PM 62.6 °F 17.6 °F 18% 30.25 in 10.0 mi East 10.4 mph - N/A   Overcast
8:55 PM 62.6 °F 17.6 °F 18% 30.25 in 10.0 mi East 11.5 mph - N/A   Mostly Cloudy
9:15 PM 62.6 °F 17.6 °F 18% 30.25 in 10.0 mi East 11.5 mph - N/A   Mostly Cloudy
9:35 PM 62.6 °F 17.6 °F 18% 30.24 in 10.0 mi East 12.7 mph - N/A   Overcast
9:55 PM 62.6 °F 17.6 °F 18% 30.25 in 10.0 mi East 11.5 mph - N/A   Overcast
10:15 PM 62.6 °F 17.6 °F 18% 30.25 in 10.0 mi East 10.4 mph - N/A   Overcast
10:35 PM 62.6 °F 17.6 °F 18% 30.25 in 10.0 mi East 12.7 mph - N/A   Overcast
10:55 PM 62.6 °F 17.6 °F 18% 30.25 in 10.0 mi East 12.7 mph - N/A   Overcast
11:15 PM 62.6 °F 17.6 °F 18% 30.24 in 10.0 mi East 12.7 mph - N/A   Overcast
11:35 PM 62.6 °F 17.6 °F 18% 30.24 in 10.0 mi East 13.8 mph - N/A   Overcast
11:55 PM 62.6 °F 17.6 °F 18% 30.24 in 10.0 mi East 12.7 mph - N/A   Mostly Cloudy